Location: Unspecified
(49.8670°N, 0.0000°E)
Time: 21:31:17
(UTC+00:00)

Vanguard 1 - Pass Details

Date: 29 June 2019
Orbit: 653 x 3830 km, 34.3° (Epoch: 15 July)

Event Time Altitude Azimuth Distance (km) Brightness Sun altitude
Rises 22:59:56 0° 209° (SSW) 7,829 14.2 -15.6°
Reaches altitude 10° 23:06:21 10° 200° (SSW) 6,917 13.9 -15.8°
Maximum altitude 23:24:17 30° 150° (SSE) 5,036 13.1 -16.4°
Drops below altitude 10° 23:38:34 10° 98° (E) 5,553 13.7 -16.7°
Sets 23:42:53 0° 88° (E) 6,149 14.1 -16.8°
